sat.trackr.live / text

‹ back to catalog

ONEWEB-0292

NORAD 49186 · 2021-083A

PAYLOAD ACTIVE UNKNOWN

§ Identity

Operator
Country
UK
Launch date
2021-09-14
Launch site
TYMSC
Launch vehicle
Mass (kg)
RCS (m²)

Purposes: comms

External: N2YO · Heavens-Above · Gunter

§ Orbital elements

Epoch: 2026-09-13T01:47:17.450592Z

Period
109.63 min
Inclination
87.8924°
Eccentricity
0.0002013
Mean motion
13.13469090 rev/d
Perigee alt
1,208.2 km
Apogee alt
1,211.3 km
Semi-major
7,587.9 km
B*
-4.9352e-4
RAAN
302.7511°
Arg perigee
99.8245°
Mean anomaly
260.3111°
Rev number
24,246

§ Raw data

ONEWEB-02921 49186U 21083A   26256.07450753 -.00000167  00000+0 -49352-3 0  99952 49186  87.8924 302.7511 0002013  99.8245 260.3111 13.13469090242468

JSON: /api/v1/satellites/49186 · /tle

For live sub-satellite position, see the globe view (requires WebGL).

§ Visibility from observer

Set your observer location to see the next 7 days of passes ≥ 10°. The values pass through the URL so the page stays shareable.

No JS? Fill the form by hand. The geolocation button needs JavaScript.